Location: Colonia Mina de C?rbuni
(46.1667°N, 22.7167°E)
Time: 21:25:58
(UTC+00:00)

Tiros 1 - Pass Details

Date: 20 April 2024
Orbit: 624 x 657 km, 48.4° (Epoch: 28 May)

Event Time Altitude Azimuth Distance (km) Brightness Sun altitude
Rises 01:52:03 0° 279° (W) 2,916 - -16.3°
Reaches altitude 10° 01:54:23 10° 282° (WNW) 2,004 - -16.0°
Exits shadow 01:55:11 15° 284° (WNW) 1,703 8.9 -15.9°
Maximum altitude 01:58:58 67° 5° (N) 678 7.4 -15.4°
Drops below altitude 10° 02:03:32 10° 89° (E) 1,994 10.5 -14.7°
Sets 02:05:52 0° 92° (E) 2,900 11.4 -14.4°
